This demonstration page uses our WeatherBlox Daily Observations layout. Learn more.

40.92945, -100.16068

Hourly Observations for August 29, 2016

Temp ( °F °C ) Dew Point ( °F °C ) Humidity (%) Winds ( mph kmh ) Pressure ( in mb ) Visibility ( mi km ) Precip ( " mm )
12:15 am 00:15 Clear 66 18.8 63 17.1 90 90 Calm 30.03 1017 10 16.09344 0 0
12:35 am 00:35 Clear 65 18.6 63 17.1 91 91 ESE 3 6 30.06 1018 10 16.09344 0 0
12:55 am 00:55 Clear 66 18.7 63 17.1 90 90 E 6 9 30.06 1018 10 16.09344 0 0
1:15 am 01:15 Mostly Cloudy 69 20.6 64 17.5 83 83 ESE 7 11 30.06 1018 10 16.09344 0 0
1:35 am 01:35 Mostly Cloudy 69 20.8 63 17.3 80 80 ESE 12 19 30.06 1018 10 16.09344 0 0
1:55 am 01:55 Partly Cloudy 69 20.6 65 18.2 86 86 SE 12 19 30.06 1018 10 16.09344 0 0
2:15 am 02:15 Clear 70 21 66 19.1 89 89 SE 10 17 30.09 1019 10 16.09344 0 0
2:35 am 02:35 Clear 70 21.1 66 19 88 88 SE 10 17 30.09 1019 10 16.09344 0 0
2:55 am 02:55 Clear 70 21 65 18.2 84 84 SE 10 17 30.09 1019 10 16.09344 0 0
3:15 am 03:15 Clear 70 21 64 18 83 83 SE 10 17 30.09 1019 10 16.09344 0 0
3:35 am 03:35 Clear 70 21 64 17.6 81 81 SSE 10 17 30.09 1019 10 16.09344 0 0
3:55 am 03:55 Clear 70 21 64 17.6 81 81 SE 12 19 30.09 1019 10 16.09344 0 0
4:15 am 04:15 Partly Cloudy 69 20.4 64 17.5 84 84 SSE 12 19 30.09 1019 10 16.09344 0 0
4:35 am 04:35 Partly Cloudy 68 20.1 64 17.6 86 86 SSE 8 13 30.09 1019 10 16.09344 0 0
4:55 am 04:55 Clear 67 19.5 64 17.5 88 88 S 6 9 30.09 1019 10 16.09344 0 0
5:15 am 05:15 Clear 67 19.5 64 17.5 88 88 S 6 9 30.09 1019 10 16.09344 0 0
5:35 am 05:35 Clear 67 19.5 64 17.5 88 88 SSE 5 7 30.09 1019 10 16.09344 0 0
5:55 am 05:55 Clear 67 19.5 64 17.5 88 88 S 5 7 30.09 1019 10 16.09344 0 0
6:15 am 06:15 Clear 67 19.6 64 17.5 88 88 SW 6 9 30.09 1019 10 16.09344 0 0
6:35 am 06:35 Clear 67 19.7 64 17.5 87 87 SW 7 11 30.09 1019 10 16.09344 0 0
6:55 am 06:55 Clear 67 19.7 63 17.3 86 86 WSW 7 11 30.09 1019 10 16.09344 0 0
7:15 am 07:15 Sunny with Light Rain 67 19.5 64 17.5 88 88 WSW 5 7 30.09 1019 10 16.09344 0 0
7:35 am 07:35 Mostly Cloudy with Light Drizzle 67 19.3 64 17.7 91 91 WSW 7 11 30.06 1018 10 16.09344 0 0
7:55 am 07:55 Mostly Cloudy with Light Rain 67 19.3 64 17.9 92 92 WSW 7 11 30.09 1019 10 16.09344 0 0
8:15 am 08:15 Mostly Cloudy 67 19.5 64 18 91 91 WSW 7 11 30.09 1019 10 16.09344 0 0
8:35 am 08:35 Partly Cloudy with Light Rain 68 19.9 65 18.2 90 90 SSE 8 13 30.09 1019 10 16.09344 0 0
8:55 am 08:55 Mostly Cloudy 69 20.4 65 18.2 87 87 SSE 7 11 30.09 1019 10 16.09344 0 0
9:15 am 09:15 Partly Cloudy 69 20.4 64 18 86 86 S 6 9 30.12 1020 10 16.09344 0 0
9:35 am 09:35 Sunny 70 21 65 18.2 84 84 SSE 9 15 30.12 1020 10 16.09344 0 0
9:55 am 09:55 Sunny 71 21.5 64 18 81 81 SSE 10 17 30.12 1020 10 16.09344 0 0
10:15 am 10:15 Sunny 72 22 64 18 78 78 SSE 10 17 30.09 1019 10 16.09344 0 0
10:35 am 10:35 Sunny 74 23.1 64 18 73 73 SSE 13 20 30.09 1019 10 16.09344 0 0
10:55 am 10:55 Sunny 74 23.4 65 18.2 73 73 S 14 22 30.09 1019 10 16.09344 0 0
11:15 am 11:15 Sunny 75 24 65 18.2 70 70 SSE 12 19 30.09 1019 10 16.09344 0 0
11:35 am 11:35 Sunny 76 24.5 65 18.2 68 68 SSE 13 20 30.09 1019 10 16.09344 0 0
11:55 am 11:55 Sunny 76 24.6 65 18.4 68 68 S 12 19 30.09 1019 10 16.09344 0 0
12:15 pm 12:15 Partly Cloudy 77 24.8 65 18.6 69 69 SSE 9 15 30.12 1020 10 16.09344 0 0
12:35 pm 12:35 Partly Cloudy 77 25 65 18.6 68 68 SSE 7 11 30.12 1020 10 16.09344 0 0
12:55 pm 12:55 Partly Cloudy 77 25.1 66 18.8 68 68 SE 8 13 30.12 1020 10 16.09344 0 0
1:15 pm 13:15 Partly Cloudy 77 24.9 65 18.4 67 67 SE 8 13 30.12 1020 10 16.09344 0 0
1:35 pm 13:35 Partly Cloudy 77 25 65 18.6 68 68 SE 9 15 30.12 1020 10 16.09344 0 0
1:55 pm 13:55 Sunny 77 25 65 18.4 67 67 SE 10 17 30.12 1020 10 16.09344 0 0
2:15 pm 14:15 Sunny 77 24.9 66 18.7 69 69 SSE 10 17 30.12 1020 10 16.09344 0 0
2:35 pm 14:35 Sunny 78 25.3 65 18.5 66 66 SSE 12 19 30.12 1020 10 16.09344 0 0
2:55 pm 14:55 Sunny 78 25.4 65 18.6 66 66 SSE 8 13 30.06 1018 10 16.09344 0 0
3:15 pm 15:15 Sunny 78 25.3 65 18.2 65 65 S 8 13 30.06 1018 10 16.09344 0 0
3:35 pm 15:35 Partly Cloudy 79 26 64 17.7 60 60 S 8 13 30.06 1018 10 16.09344 0 0
3:55 pm 15:55 Sunny 79 26.3 64 18 60 60 SSW 8 13 30.06 1018 10 16.09344 0 0
4:15 pm 16:15 Partly Cloudy 79 26 65 18.4 63 63 SSW 9 15 30.03 1017 10 16.09344 0 0
4:35 pm 16:35 Partly Cloudy 80 26.5 65 18.5 62 62 SSW 10 17 30.03 1017 10 16.09344 0 0
4:55 pm 16:55 Sunny 79 26.3 65 18.6 63 63 SSW 7 11 30.03 1017 10 16.09344 0 0
5:15 pm 17:15 Sunny 79 25.9 66 18.9 65 65 SW 7 11 30.03 1017 10 16.09344 0 0
5:35 pm 17:35 Sunny 79 26.1 66 18.8 64 64 SSW 8 13 30.03 1017 10 16.09344 0 0
5:55 pm 17:55 Sunny 78 25.8 66 19 66 66 SW 6 9 30.03 1017 10 16.09344 0 0
6:15 pm 18:15 Sunny 78 25.5 66 19.1 68 68 SSW 6 9 30.03 1017 10 16.09344 0 0
6:35 pm 18:35 Sunny 78 25.5 66 18.9 67 67 SSW 6 9 30.06 1018 10 16.09344 0 0
6:55 pm 18:55 Sunny 78 25.5 66 19.1 68 68 S 3 6 30.06 1018 10 16.09344 0 0
7:15 pm 19:15 Sunny 77 25 66 19.1 70 70 SE 3 6 30.09 1019 10 16.09344 0 0
7:35 pm 19:35 Sunny 76 24.7 67 19.2 72 72 SE 5 7 30.09 1019 10 16.09344 0 0
7:55 pm 19:55 Sunny 76 24.3 67 19.7 76 76 SE 6 9 30.09 1019 10 16.09344 0 0
8:15 pm 20:15 Sunny 75 23.7 67 19.6 78 78 SE 5 7 30.09 1019 10 16.09344 0 0
8:35 pm 20:35 Clear 74 23.2 67 19.5 80 80 SE 3 6 30.09 1019 10 16.09344 0 0
8:55 pm 20:55 Clear 74 23.2 67 19.2 78 78 Calm 30.09 1019 10 16.09344 0 0
9:15 pm 21:15 Clear 73 22.6 67 19.2 81 81 Calm 30.09 1019 10 16.09344 0 0
9:35 pm 21:35 Clear 72 22.3 67 19.3 83 83 S 3 6 30.09 1019 10 16.09344 0 0
9:55 pm 21:55 Partly Cloudy 72 22 67 19.3 85 85 S 6 9 30.09 1019 10 16.09344 0 0
10:15 pm 22:15 Mostly Cloudy with Light Drizzle 72 22 67 19.5 86 86 S 5 7 30.09 1019 10 16.09344 0 0
10:35 pm 22:35 Mostly Cloudy 71 21.9 67 19.5 86 86 SSW 6 9 30.09 1019 10 16.09344 0 0
10:55 pm 22:55 Partly Cloudy 72 22 67 19.3 85 85 SSW 5 7 30.09 1019 10 16.09344 0 0
11:15 pm 23:15 Partly Cloudy 71 21.7 67 19.2 86 86 SW 3 6 30.09 1019 10 16.09344 0 0
11:35 pm 23:35 Partly Cloudy 71 21.4 67 19.2 87 87 Calm 30.15 1021 10 16.09344 0 0
11:55 pm 23:55 Mostly Cloudy 71 21.5 67 19.3 87 87 Calm 30.15 1021 10 16.09344 0 0

Powered by AerisWeather